Zurück zum Katalog

THOR ABLESTAR DEB

AktivLEO
NORAD 543·DEBRIS·🇺🇸 United States

Gestartet Jun 29, 1961 von Cape Canaveral Space Force Station

Loading…

Nächste Überflüge (nächste 24 Stunden)

TLE

AktuellSource: Space-Track

Epoche: Sep 14, 2026, 13:22 UTC

1 00543U 61015GC  26257.55701267  .00000083  00000-0  17438-3 0  9997
2 00543  67.0296  95.9815 0065512 142.0012 249.3027 13.69265509248939

Verfolge THOR ABLESTAR DEB in Echtzeit mit AllMySat

Download on the App Store